Regional Weather Roundup
Issued by NWS Wakefield, VA

Home | Current Version | Previous Version | Graphics & Text | Print | Product List | Glossary On
Versions: 1 2 3 4 5 6 7 8 9 10 11 12 13 14 15 16 17 18 19 20 21 22 23 24 25 26 27 28 29 30 31 32 33 34 35 36 37 38 39 40 41 42 43 44 45 46 47 48 49 50
812
ASUS41 KAKQ 301215
RWRAKQ

REGIONAL WEATHER ROUNDUP
NATIONAL WEATHER SERVICE WAKEFIELD VA
800 AM EDT SAT JUL 30 2016

Note: "fair" indicates few or no clouds below 12,000 feet with no
significant weather and/or obstructions to visibility. * = Denotes
station may not report precipitation (e.g., rain,snow,etc.),
thunder or fog.

VAZ042-051-052>054-056-301300-
NORTHERN VIRGINIA

CITY           SKY/WX    TMP DP  RH WIND       PRES   REMARKS
WASH NATIONAL  CLOUDY    79  74  84 S7        29.98R
DULLES         PTSUNNY   76  71  85 S5        29.98R
FORT BELVOIR   FAIR      75  73  95 CALM      29.98R
QUANTICO       FAIR      79  73  82 CALM      29.99
FREDERICKSBRG* FAIR      76  76 100 CALM      29.97S
STAFFORD*      FAIR      74  72  92 CALM      30.02S
WARRENTON      LGT RAIN  75  71  85 CALM      29.99R
CULPEPER*      DRIZZLE   74  74 100 CALM      29.99S
MANASSAS*      PTSUNNY   75  75 100 S3        29.98R
LEESBURG*      FAIR      77  75  94 S9        29.99S
WINCHESTER     FAIR      73  72  94 CALM      29.98R
FRONT ROYAL*   CLOUDY    72  70  94 S3        29.98R
LURAY*         NOT AVBL
$$

VAZ048-049-060>072-079>083-301300-
CENTRAL AND SOUTH CENTRAL VIRGINIA

CITY           SKY/WX    TMP DP  RH WIND       PRES   REMARKS
RICHMOND       PTSUNNY   77  74  90 S5        29.99R
CHESTERFIELD*  FAIR      79  63  57 SE5       30.00R
PETERSBURG*    FAIR     N/A N/A N/A SE3       29.99R
HANOVER        PTSUNNY   77  73  87 SE3       30.00R
TAPPAHANNOCK*  NOT AVBL
QUINTON*       FAIR      74  74  99 CALM      29.98R
CHARLOTTSVILLE PTSUNNY   75  72  90 CALM      29.99R
GORDONSVILLE*  CLOUDY    74  73  98 CALM      29.99R
ORANGE*          N/A     73  73 100 CALM      30.01R
LOUISA*        CLOUDY    77  75  94 CALM      29.98S
BUMPASS*       CLOUDY    73  73  99 CALM      29.99S
FARMVILLE*     CLOUDY   N/A N/A N/A CALM      29.98S
CREWE*         NOT AVBL
FORT PICKETT*  FAIR      74  74  98 SE5       29.99R
CHASE CITY*    FAIR      76  74  94 CALM      29.99R
CLARKSVILLE*   PTSUNNY   77  77 100 CALM      29.97S
SOUTH HILL*    FAIR      75  73  93 CALM      30.04R
LAWRENCEVILLE* PTSUNNY   75  74  95 CALM      29.99R
EMPORIA*       FAIR      77  73  88 E3        30.00R
$$

VAZ088>098-301300-
SOUTHEAST VIRGINIA

CITY           SKY/WX    TMP DP  RH WIND       PRES   REMARKS
NORFOLK        FAIR      82  71  69 S3        29.98R
VIRGINIA BEACH FAIR      85  74  69 CALM      29.98R
NORFOLK NAVAL  FAIR      82  72  71 SE3       30.00R
WEST POINT*    FAIR      79  76  93 CALM      30.00R
SALUDA*        FAIR      79  77  95 CALM      29.99R
NEWPORT NEWS   FAIR      81  76  84 CALM      29.99R
LANGLEY AFB    FAIR      82  74  77 SE5       29.99R
FORT EUSTIS    FAIR      82  76  80 SE5       29.97R
WILLIAMSBURG*  FAIR      81  77  89 S5        29.99S
HR EXEC AP*    FAIR      79  75  89 CALM      30.01R
FRANKLIN*      FAIR      78  73  85 SE5       29.99R
US460-WAKEFLD  FAIR      78  73  84 CALM      29.98R
$$

VAZ020-022-025-037-045-301300-
WEST CENTRAL AND SOUTHWEST VIRGINIA

CITY           SKY/WX    TMP DP  RH WIND       PRES   REMARKS
STAUNTON*      FAIR      73  71  92 CALM      30.03S
WAYNESBORO*    FAIR      73  69  89 MISG      30.02S
HOT SPRINGS VA FAIR      66  66 100 W10       30.13R
LYNCHBURG      LGT RAIN  73  72  96 N5        30.01R
DANVILLE       CLOUDY    76  72  87 CALM      29.98R
SOUTH BOSTON*  FAIR     N/A N/A N/A CALM      29.98R
MARTINSVILLE   FAIR      74  70  87 CALM      30.02S
ROANOKE        FOG       72  70  93 CALM      30.04R VSB 3/4
BLACKSBURG     FOG       68  68 100 W3        30.10R VSB 1
DUBLIN*        FOG       68  68 100 CALM      30.09R VSB 1/4
MARION*        CLOUDY    68  67  96 W6        30.12S FOG
HILLSVILLE*    FAIR      68  67  98 N3        30.09R
RICHLANDS*     FOG       65  65 100 CALM      30.10R VSB 1/4
WISE*          LGT RAIN  66  64  94 SW7       30.11R
ABINGDON*      CLOUDY    69  69 100 CALM      30.09R FOG
$$

MDZ021>025-VAZ099-100-301300-
SOUTHERN MARYLAND AND THE DELMARVA PENINSULA

CITY           SKY/WX    TMP DP  RH WIND       PRES   REMARKS
PATUXENT RIVER PTSUNNY   79  72  79 SE5       29.98R
BAY BRIDGE APT MOSUNNY   81  77  89 S5        29.98R
LEONARDTOWN    CLOUDY    77  72  83 CALM      30.00R
DOVER          MOSUNNY   76  76 100 S7        29.98R
GEORGETOWN     SUNNY     76  74  93 S5        30.00S FOG
EASTON         SUNNY     81  79  94 S7        30.03R
CAMBRIDGE      CLOUDY    77  73  88 CALM      29.99R
SALISBURY      NOT AVBL
OCEAN CITY     SUNNY     79  74  84 S5        30.00R
WALLOPS ISLAND FAIR      80  76  87 SE7       30.00R
ACCOMACK*      FAIR      79  73  83 CALM      29.99R
$$

NCZ012>017-030>032-301300-
NORTH CENTRAL AND EASTERN NORTH CAROLINA

CITY           SKY/WX    TMP DP  RH WIND       PRES   REMARKS
ROANOKE RAPIDS FAIR      73  73 100 CALM      29.98R
RALEIGH        PTSUNNY   78  72  81 SE6       29.97R
ELIZABETH CITY SUNNY     82  76  81 E3        29.98R
AHOSKIE*       CLOUDY    77  76  96 CALM      29.99R
EDENTON*       SUNNY     84  77  80 SE3       29.99R
CURRITUCK*     SUNNY     79  77  95 CALM      29.99R
KILL DEVIL HLS SUNNY     79  79  99 CALM      29.97S
MANTEO           N/A     80  78  91 E5        29.98S
CAPE HATTERAS  SUNNY     82  79  90 E6        29.98R
TARBORO*       FAIR      78  76  92 CALM      29.98S
GOLDSBORO      CLOUDY    78  78 100 S3        29.96R
WASHINGTON     SUNNY     80  77  90 CALM      29.98R
GREENVILLE     MOSUNNY   82  77  83 E3        29.99S
NEW BERN       PTSUNNY   83  79  88 CALM      29.99R
WILMINGTON     SUNNY     84  78  82 W7        29.98R HX  95
$$

VAZ048-301300-
ELSEWHERE

CITY           SKY/WX    TMP DP  RH WIND       PRES   REMARKS
HARRISBURG PA  PTSUNNY   75  70  84 E3        29.97S
BALTIMORE      CLOUDY    75  72  90 CALM      29.98R
ANNAPOLIS      CLOUDY   N/A N/A N/A CALM      29.97R
ANDREWS AFB    FAIR      76  74  93 S2        29.98R
PHILADELPHIA   PTSUNNY   76  73  91 S6        30.00R
GREENSBORO     PTSUNNY   78  71  79 CALM      29.99R
ROCKY MOUNT    SUNNY     79  76  90 SE3       29.98R
$$

VAZ100-301300-
MARINE

STATION/POSITION TIME  TEMP    WIND        PRES    WAVE   SWELL
                       AIR SEA DIR/SP/G            HT/PER HT/PER
                 (UTC) (F)     (DEG/KT/KT) (MB)    (FT/S) (FT/S)
BRANDYWINE LGT   1100   73     180/  7/  8   N/A
CAPE MAY NJ      1100   75 73  150/  4/  5 1014.9R
LEWES DE         1100   76 74  210/  2/  3 1015.1R
OCEAN-CITY-INLET 1100   76 74  160/  2/  3 1015.6R
WACHAPREAGUE VA  1100   79 83  140/  4/  5 1015.0R
THOMAS POINT MD  1200   81 84  190/  8/  9 1016.5R
GOOSES REEF MD   1200   84 84  180/  8/ 12 1016.3R   1
COVE POINT MD    1100   80     210/  6/  7 1015.3R
SOLOMONS ISLAND  1100   80 85  180/  3/  4   N/A
BISHOPS HEAD MD  1100   81     180/  8/ 10 1015.2R
PINEY POINT MD   1100          180/  7/  7   N/A
POTOMAC MD       1200   82 84  220/  6/  8 1014.4R   0
CAMBRIDGE MD     1100   77 87  160/  4/  7 1014.1R
LEWISETTA VA     1100   79 85  220/  3/  4 1014.5R
RAPPAHANNOCK LGT 1100          130/  9/ 10 1015.5R
STINGRAY PT      1200   83 86  110/  8/ 10 1015.8R
YORK RVR RNG VA  1100   81     190/  6/  8 1014.5R
YORKTOWN VA      1100   80 85  180/  3/  4 1014.5R
JAMESTOWN VA     1200   81 88  150/  4/  6   N/A
DOMINION TERM VA 1100   80     150/  6/  7 1014.9R
KIPTOPEKE VA     1100      80  130/  4/  6   N/A
CHES BAY BRIDGE  1100   80 77  120/  2/  4 1014.7R
CAPE HENRY VA    1100   78     110/  3/  4   N/A
WILLOUBY STN VA  1100   80     150/  5/  5   N/A
CAPE HENRY BUOY  1112      80                N/A     2/ 7
1ST LANDING BUOY 1200   80 81  120/  6/  6 1015.3R   1/ 4
CAPE CHARLES BUO 1126      77                N/A     2/ 6
OFFSHORE WE BUOY 1121      82                N/A     3/ 6
64NM E OF VA BCH 1150   81 82   80/  6/  8 1015.1R   3/ 6   2/ 6
DUCK PIER NC     1100   80 72   40/  4/  5 1014.3R
44100 DUCK FRF   1105      81                N/A     2/13
44056 DUCK FRF   1111      80                N/A     1/ 8
OREGON INLET NC  1100   78 79   60/  3/  4 1014.9R
HATTERAS NC      1100   82 83   80/  3/  4 1014.5R
DIAMOND SHLS NC  1150   85 86   80/  4/  4 1015.0R   2/ 6   2/ 6
CAPE LOOKOUT NC  1200   82     140/  2/  2 1014.8R
$$




USA.gov is the U.S. government's official web portal to all federal, state and local government web resources and services.